Time,TemperatureF,DewpointF,PressureIn,WindDirection,WindDirectionDegrees,WindSpeedMPH,WindSpeedGustMPH,Humidity,HourlyPrecipIn,Conditions,Clouds,dailyrainin,SoftwareType,DateUTC
2013-02-15 00:00:00,28.2,24.0,29.88,SSE,153,0.0,0.0,84,0.00,,,0.00,Wunderground v.1.12,2013-02-15 05:00:00,
2013-02-15 00:03:00,28.2,24.0,29.88,SSE,153,0.0,0.0,84,0.00,,,0.00,Wunderground v.1.12,2013-02-15 05:03:00,
2013-02-15 00:05:00,28.2,24.0,29.88,SSE,153,0.0,0.0,84,0.00,,,0.00,Wunderground v.1.12,2013-02-15 05:05:00,
2013-02-15 00:07:00,28.4,23.9,29.88,N/A,-737280,0.0,0.0,83,0.00,,,0.00,Wunderground v.1.12,2013-02-15 05:07:00,
2013-02-15 00:08:00,28.2,24.0,29.88,SSE,153,0.0,0.0,84,0.00,,,0.00,Wunderground v.1.12,2013-02-15 05:08:00,
2013-02-15 00:13:00,28.4,24.2,29.88,SSE,153,0.0,0.0,84,0.00,,,0.00,Wunderground v.1.12,2013-02-15 05:13:00,
2013-02-15 00:18:00,28.5,24.3,29.88,SSE,153,0.0,0.0,84,0.00,,,0.00,Wunderground v.1.12,2013-02-15 05:18:00,
2013-02-15 00:24:00,28.5,24.0,29.88,SSE,153,0.0,0.0,83,0.00,,,0.00,Wunderground v.1.12,2013-02-15 05:24:00,
2013-02-15 00:29:00,28.4,23.9,29.88,SSE,153,0.0,0.0,83,0.00,,,0.00,Wunderground v.1.12,2013-02-15 05:29:00,
2013-02-15 00:34:00,28.4,23.9,29.88,SSE,153,0.0,0.0,83,0.00,,,0.00,Wunderground v.1.12,2013-02-15 05:34:00,
2013-02-15 00:35:00,28.4,23.9,29.88,N/A,-737280,0.0,0.0,83,0.00,,,0.00,Wunderground v.1.12,2013-02-15 05:35:00,
2013-02-15 00:40:00,28.4,24.2,29.88,SSE,153,0.0,0.0,84,0.00,,,0.00,Wunderground v.1.12,2013-02-15 05:40:00,
2013-02-15 00:45:00,28.4,23.9,29.88,SSE,153,0.0,0.0,83,0.00,,,0.00,Wunderground v.1.12,2013-02-15 05:45:00,
2013-02-15 00:50:00,28.1,23.6,29.88,SSE,153,0.0,0.0,83,0.00,,,0.00,Wunderground v.1.12,2013-02-15 05:50:00,
2013-02-15 00:56:00,27.6,23.4,29.88,SSE,153,0.0,0.0,84,0.00,,,0.00,Wunderground v.1.12,2013-02-15 05:56:00,
2013-02-15 01:03:00,27.0,22.8,29.88,SSE,153,0.0,0.0,84,0.00,,,0.00,Wunderground v.1.12,2013-02-15 06:03:00,
2013-02-15 01:06:00,27.5,23.3,29.88,SSE,158,0.0,1.0,84,0.00,,,0.00,Wunderground v.1.12,2013-02-15 06:06:00,
2013-02-15 01:08:00,26.9,23.0,29.88,SSE,153,0.0,0.0,85,0.00,,,0.00,Wunderground v.1.12,2013-02-15 06:08:00,
2013-02-15 01:14:00,26.7,22.8,29.88,SSE,153,0.0,0.0,85,0.00,,,0.00,Wunderground v.1.12,2013-02-15 06:14:00,
2013-02-15 01:19:00,26.4,22.5,29.88,SSE,153,0.0,0.0,85,0.00,,,0.00,Wunderground v.1.12,2013-02-15 06:19:00,
2013-02-15 01:25:00,26.4,22.5,29.88,SSE,153,0.0,0.0,85,0.00,,,0.00,Wunderground v.1.12,2013-02-15 06:25:00,
2013-02-15 01:31:00,26.4,22.8,29.88,SSE,153,0.0,0.0,86,0.00,,,0.00,Wunderground v.1.12,2013-02-15 06:31:00,
2013-02-15 01:36:00,26.3,22.7,29.88,SSE,153,0.0,0.0,86,0.00,,,0.00,Wunderground v.1.12,2013-02-15 06:36:00,
2013-02-15 01:37:00,26.4,22.8,29.88,N/A,-737280,0.0,0.0,86,0.00,,,0.00,Wunderground v.1.12,2013-02-15 06:37:00,
2013-02-15 01:43:00,26.4,22.8,29.88,SSE,153,0.0,0.0,86,0.00,,,0.00,Wunderground v.1.12,2013-02-15 06:43:00,
2013-02-15 01:48:00,26.4,22.8,29.88,SSE,153,0.0,0.0,86,0.00,,,0.00,Wunderground v.1.12,2013-02-15 06:48:00,
2013-02-15 01:53:00,26.6,23.0,29.88,SSE,153,0.0,0.0,86,0.00,,,0.00,Wunderground v.1.12,2013-02-15 06:53:00,
2013-02-15 01:58:00,26.6,23.0,29.88,SSE,153,0.0,0.0,86,0.00,,,0.00,Wunderground v.1.12,2013-02-15 06:58:00,
2013-02-15 02:03:00,26.4,22.5,29.88,SSE,153,0.0,0.0,85,0.00,,,0.00,Wunderground v.1.12,2013-02-15 07:03:00,
2013-02-15 02:08:00,26.3,22.7,29.88,SSE,153,0.0,0.0,86,0.00,,,0.00,Wunderground v.1.12,2013-02-15 07:08:00,
2013-02-15 02:13:00,26.3,22.7,29.88,SSE,153,0.0,0.0,86,0.00,,,0.00,Wunderground v.1.12,2013-02-15 07:13:00,
2013-02-15 02:19:00,26.3,22.4,29.88,SSE,153,0.0,0.0,85,0.00,,,0.00,Wunderground v.1.12,2013-02-15 07:19:00,
2013-02-15 02:24:00,26.1,22.2,29.88,SSE,153,0.0,0.0,85,0.00,,,0.00,Wunderground v.1.12,2013-02-15 07:24:00,
2013-02-15 02:30:00,26.0,22.1,29.88,SSE,153,0.0,0.0,85,0.00,,,0.00,Wunderground v.1.12,2013-02-15 07:30:00,
2013-02-15 02:35:00,26.0,22.1,29.88,N/A,-737280,0.0,0.0,85,0.00,,,0.00,Wunderground v.1.12,2013-02-15 07:35:00,
2013-02-15 02:36:00,25.8,21.9,29.88,SSE,153,0.0,0.0,85,0.00,,,0.00,Wunderground v.1.12,2013-02-15 07:36:00,
2013-02-15 02:41:00,25.7,21.8,29.88,SSE,153,0.0,0.0,85,0.00,,,0.00,Wunderground v.1.12,2013-02-15 07:41:00,
2013-02-15 02:48:00,25.4,21.5,29.88,SSE,153,0.0,0.0,85,0.00,,,0.00,Wunderground v.1.12,2013-02-15 07:48:00,
2013-02-15 02:53:00,25.3,21.7,29.88,SSE,153,0.0,0.0,86,0.00,,,0.00,Wunderground v.1.12,2013-02-15 07:53:00,
2013-02-15 02:58:00,25.1,21.5,29.88,SSE,153,0.0,0.0,86,0.00,,,0.00,Wunderground v.1.12,2013-02-15 07:58:00,
2013-02-15 03:04:00,25.0,21.4,29.88,SSE,153,0.0,0.0,86,0.00,,,0.00,Wunderground v.1.12,2013-02-15 08:04:00,
2013-02-15 03:08:00,25.1,21.5,29.88,SSE,158,0.0,1.0,86,0.00,,,0.00,Wunderground v.1.12,2013-02-15 08:08:00,
2013-02-15 03:09:00,24.8,21.2,29.88,SSE,153,0.0,0.0,86,0.00,,,0.00,Wunderground v.1.12,2013-02-15 08:09:00,
2013-02-15 03:14:00,25.0,21.7,29.88,SSE,153,0.0,0.0,87,0.00,,,0.00,Wunderground v.1.12,2013-02-15 08:14:00,
2013-02-15 03:20:00,25.1,21.8,29.88,SSE,153,0.0,0.0,87,0.00,,,0.00,Wunderground v.1.12,2013-02-15 08:20:00,
2013-02-15 03:25:00,25.3,22.0,29.88,SSE,153,0.0,0.0,87,0.00,,,0.00,Wunderground v.1.12,2013-02-15 08:25:00,
2013-02-15 03:30:00,25.3,22.0,29.88,SSE,153,0.0,0.0,87,0.00,,,0.00,Wunderground v.1.12,2013-02-15 08:30:00,
2013-02-15 03:36:00,25.3,22.0,29.88,SSE,153,0.0,0.0,87,0.00,,,0.00,Wunderground v.1.12,2013-02-15 08:36:00,
2013-02-15 03:38:00,25.4,22.1,29.88,SSE,158,0.0,1.0,87,0.00,,,0.00,Wunderground v.1.12,2013-02-15 08:38:00,
2013-02-15 03:43:00,25.3,22.0,29.88,SSE,153,0.0,0.0,87,0.00,,,0.00,Wunderground v.1.12,2013-02-15 08:43:00,
2013-02-15 03:49:00,25.1,21.5,29.88,SSE,153,0.0,0.0,86,0.00,,,0.00,Wunderground v.1.12,2013-02-15 08:49:00,
2013-02-15 03:55:00,25.3,22.0,29.88,SSE,153,0.0,0.0,87,0.00,,,0.00,Wunderground v.1.12,2013-02-15 08:55:00,
2013-02-15 04:00:00,25.4,22.1,29.88,SSE,153,0.0,0.0,87,0.00,,,0.00,Wunderground v.1.12,2013-02-15 09:00:00,
2013-02-15 04:06:00,25.7,22.4,29.88,SSE,153,0.0,1.0,87,0.00,,,0.00,Wunderground v.1.12,2013-02-15 09:06:00,
2013-02-15 04:11:00,26.0,22.4,29.88,SSE,153,0.0,0.0,86,0.00,,,0.00,Wunderground v.1.12,2013-02-15 09:11:00,
2013-02-15 04:18:00,26.3,22.4,29.88,SSE,153,0.0,1.0,85,0.00,,,0.00,Wunderground v.1.12,2013-02-15 09:18:00,
2013-02-15 04:23:00,26.3,22.4,29.88,SSE,153,0.0,0.0,85,0.00,,,0.00,Wunderground v.1.12,2013-02-15 09:23:00,
2013-02-15 04:28:00,26.3,22.1,29.88,SSE,153,0.0,0.0,84,0.00,,,0.00,Wunderground v.1.12,2013-02-15 09:28:00,
2013-02-15 04:34:00,25.7,21.3,29.88,SSE,153,0.0,0.0,83,0.00,,,0.00,Wunderground v.1.12,2013-02-15 09:34:00,
2013-02-15 04:36:00,26.1,21.9,29.88,SSE,158,0.0,1.0,84,0.00,,,0.00,Wunderground v.1.12,2013-02-15 09:36:00,
2013-02-15 04:40:00,25.1,20.9,29.88,SSE,153,0.0,0.0,84,0.00,,,0.00,Wunderground v.1.12,2013-02-15 09:40:00,
2013-02-15 04:46:00,25.0,21.1,29.88,SSE,153,0.0,0.0,85,0.00,,,0.00,Wunderground v.1.12,2013-02-15 09:46:00,
2013-02-15 04:53:00,24.8,20.9,29.88,SSE,153,0.0,0.0,85,0.00,,,0.00,Wunderground v.1.12,2013-02-15 09:53:00,
2013-02-15 04:58:00,24.8,20.9,29.88,SSE,153,0.0,0.0,85,0.00,,,0.00,Wunderground v.1.12,2013-02-15 09:58:00,
2013-02-15 05:03:00,24.8,20.9,29.88,SSE,153,0.0,0.0,85,0.00,,,0.00,Wunderground v.1.12,2013-02-15 10:03:00,
2013-02-15 05:06:00,24.8,20.9,29.88,SSE,158,0.0,1.0,85,0.00,,,0.00,Wunderground v.1.12,2013-02-15 10:06:00,
2013-02-15 05:08:00,25.0,21.4,29.88,SSE,153,0.0,0.0,86,0.00,,,0.00,Wunderground v.1.12,2013-02-15 10:08:00,
2013-02-15 05:13:00,25.3,21.7,29.88,SSE,153,0.0,2.0,86,0.00,,,0.00,Wunderground v.1.12,2013-02-15 10:13:00,
2013-02-15 05:19:00,26.0,22.4,29.88,SSE,153,0.0,0.0,86,0.00,,,0.00,Wunderground v.1.12,2013-02-15 10:19:00,
2013-02-15 05:24:00,26.1,22.5,29.88,SSE,153,0.0,0.0,86,0.00,,,0.00,Wunderground v.1.12,2013-02-15 10:24:00,
2013-02-15 05:30:00,26.4,22.8,29.88,SSE,153,0.0,0.0,86,0.00,,,0.00,Wunderground v.1.12,2013-02-15 10:30:00,
2013-02-15 05:36:00,26.6,23.0,29.88,SSE,153,0.0,0.0,86,0.00,,,0.00,Wunderground v.1.12,2013-02-15 10:36:00,
2013-02-15 05:38:00,26.4,22.8,29.88,SSE,158,0.0,4.0,86,0.00,,,0.00,Wunderground v.1.12,2013-02-15 10:38:00,
2013-02-15 05:41:00,26.7,23.1,29.88,SSE,153,0.0,1.0,86,0.00,,,0.00,Wunderground v.1.12,2013-02-15 10:41:00,
2013-02-15 05:48:00,27.3,23.7,29.88,SSE,153,0.0,0.0,86,0.00,,,0.00,Wunderground v.1.12,2013-02-15 10:48:00,
2013-02-15 05:53:00,27.5,23.9,29.88,SSE,154,0.0,1.0,86,0.00,,,0.00,Wunderground v.1.12,2013-02-15 10:53:00,
2013-02-15 05:58:00,27.8,24.2,29.88,SSE,153,0.0,1.0,86,0.00,,,0.00,Wunderground v.1.12,2013-02-15 10:58:00,
2013-02-15 06:03:00,28.1,24.5,29.87,SSE,154,0.0,1.0,86,0.00,,,0.00,Wunderground v.1.12,2013-02-15 11:03:00,
2013-02-15 06:07:00,27.8,24.2,29.87,SSE,158,0.0,5.0,86,0.00,,,0.00,Wunderground v.1.12,2013-02-15 11:07:00,
2013-02-15 06:09:00,28.4,24.7,29.87,SSE,154,0.0,0.0,86,0.00,,,0.00,Wunderground v.1.12,2013-02-15 11:09:00,
2013-02-15 06:14:00,28.1,24.2,29.88,SSE,153,0.0,0.0,85,0.00,,,0.00,Wunderground v.1.12,2013-02-15 11:14:00,
2013-02-15 06:20:00,28.2,24.6,29.88,SSE,154,0.0,2.0,86,0.00,,,0.00,Wunderground v.1.12,2013-02-15 11:20:00,
2013-02-15 06:25:00,28.4,24.7,29.88,SSE,154,0.0,0.0,86,0.00,,,0.00,Wunderground v.1.12,2013-02-15 11:25:00,
2013-02-15 06:30:00,28.5,24.8,29.88,SSE,154,0.0,0.0,86,0.00,,,0.00,Wunderground v.1.12,2013-02-15 11:30:00,
2013-02-15 06:35:00,28.5,24.8,29.88,SSE,158,0.0,4.0,86,0.00,,,0.00,Wunderground v.1.12,2013-02-15 11:35:00,
2013-02-15 06:36:00,28.8,25.1,29.88,SSE,154,0.0,1.0,86,0.00,,,0.00,Wunderground v.1.12,2013-02-15 11:36:00,
2013-02-15 06:41:00,28.8,25.1,29.88,SSE,154,0.0,0.0,86,0.00,,,0.00,Wunderground v.1.12,2013-02-15 11:41:00,
2013-02-15 06:48:00,29.0,25.3,29.88,SSE,154,0.0,0.0,86,0.00,,,0.00,Wunderground v.1.12,2013-02-15 11:48:00,
2013-02-15 06:53:00,29.0,25.3,29.88,SSE,154,0.0,0.0,86,0.00,,,0.00,Wunderground v.1.12,2013-02-15 11:53:00,
2013-02-15 06:59:00,29.1,25.4,29.88,SSE,154,0.0,0.0,86,0.00,,,0.00,Wunderground v.1.12,2013-02-15 11:59:00,
2013-02-15 07:05:00,29.4,25.7,29.88,SSE,156,0.0,4.0,86,0.00,,,0.00,Wunderground v.1.12,2013-02-15 12:05:00,
2013-02-15 07:06:00,29.3,25.6,29.88,SSE,158,0.0,3.0,86,0.00,,,0.00,Wunderground v.1.12,2013-02-15 12:06:00,
2013-02-15 07:11:00,29.7,26.0,29.88,SSE,157,1.0,1.0,86,0.00,,,0.00,Wunderground v.1.12,2013-02-15 12:11:00,
2013-02-15 07:16:00,29.8,26.1,29.88,SSE,159,1.0,1.0,86,0.00,,,0.00,Wunderground v.1.12,2013-02-15 12:16:00,
2013-02-15 07:21:00,30.0,26.3,29.88,SSE,160,1.0,1.0,86,0.00,,,0.00,Wunderground v.1.12,2013-02-15 12:21:00,
2013-02-15 07:28:00,30.1,26.4,29.88,SSE,161,0.0,3.0,86,0.00,,,0.00,Wunderground v.1.12,2013-02-15 12:28:00,
2013-02-15 07:33:00,30.3,26.6,29.88,SSE,161,0.0,2.0,86,0.00,,,0.00,Wunderground v.1.12,2013-02-15 12:33:00,
2013-02-15 07:37:00,30.1,26.4,29.88,SSE,158,0.0,5.0,86,0.00,,,0.00,Wunderground v.1.12,2013-02-15 12:37:00,
2013-02-15 07:38:00,30.4,26.7,29.88,SSE,161,1.0,2.0,86,0.00,,,0.00,Wunderground v.1.12,2013-02-15 12:38:00,
2013-02-15 07:44:00,30.7,27.0,29.88,South,169,1.0,3.0,86,0.00,,,0.00,Wunderground v.1.12,2013-02-15 12:44:00,
2013-02-15 07:49:00,31.0,27.3,29.88,South,173,1.0,1.0,86,0.00,,,0.00,Wunderground v.1.12,2013-02-15 12:49:00,
2013-02-15 07:54:00,31.2,27.5,29.88,South,172,1.0,1.0,86,0.00,,,0.00,Wunderground v.1.12,2013-02-15 12:54:00,
2013-02-15 08:00:00,31.5,27.8,29.87,SSE,164,1.0,1.0,86,0.00,,,0.00,Wunderground v.1.12,2013-02-15 13:00:00,
2013-02-15 08:06:00,31.8,28.1,29.87,SSE,163,1.0,1.0,86,0.00,,,0.00,Wunderground v.1.12,2013-02-15 13:06:00,
2013-02-15 08:13:00,32.1,28.1,29.87,SSE,161,1.0,2.0,85,0.00,,,0.00,Wunderground v.1.12,2013-02-15 13:13:00,
2013-02-15 08:18:00,32.7,28.7,29.87,South,190,1.0,5.0,85,0.00,,,0.00,Wunderground v.1.12,2013-02-15 13:18:00,
2013-02-15 08:24:00,33.4,29.1,29.87,South,182,2.0,3.0,84,0.00,,,0.00,Wunderground v.1.12,2013-02-15 13:24:00,
2013-02-15 08:30:00,34.0,29.1,29.87,South,183,2.0,10.0,82,0.00,,,0.00,Wunderground v.1.12,2013-02-15 13:30:00,
2013-02-15 08:36:00,34.3,28.8,29.87,South,175,2.0,3.0,80,0.00,,,0.00,Wunderground v.1.12,2013-02-15 13:36:00,
2013-02-15 08:37:00,34.0,29.1,29.87,South,180,1.0,10.0,82,0.00,,,0.00,Wunderground v.1.12,2013-02-15 13:37:00,
2013-02-15 08:43:00,34.4,28.9,29.87,SSE,165,1.0,2.0,80,0.00,,,0.00,Wunderground v.1.12,2013-02-15 13:43:00,
2013-02-15 08:48:00,34.6,29.1,29.88,South,178,1.0,1.0,80,0.00,,,0.00,Wunderground v.1.12,2013-02-15 13:48:00,
2013-02-15 08:53:00,34.7,28.9,29.88,SSW,206,1.0,1.0,79,0.00,,,0.00,Wunderground v.1.12,2013-02-15 13:53:00,
2013-02-15 08:59:00,35.0,29.1,29.88,WSW,251,2.0,2.0,79,0.00,,,0.00,Wunderground v.1.12,2013-02-15 13:59:00,
2013-02-15 09:04:00,35.3,29.1,29.88,ESE,109,2.0,3.0,78,0.00,,,0.00,Wunderground v.1.12,2013-02-15 14:04:00,
2013-02-15 09:07:00,35.2,29.3,29.88,SSE,158,1.0,10.0,79,0.00,,,0.00,Wunderground v.1.12,2013-02-15 14:07:00,
2013-02-15 09:10:00,35.8,29.3,29.88,West,265,1.0,3.0,77,0.00,,,0.00,Wunderground v.1.12,2013-02-15 14:10:00,
2013-02-15 09:15:00,36.0,29.5,29.88,SW,219,1.0,3.0,77,0.00,,,0.00,Wunderground v.1.12,2013-02-15 14:15:00,
2013-02-15 09:21:00,36.3,29.5,29.88,South,180,2.0,4.0,76,0.00,,,0.00,Wunderground v.1.12,2013-02-15 14:21:00,
2013-02-15 09:28:00,36.8,29.6,29.88,SSE,165,1.0,5.0,75,0.00,,,0.00,Wunderground v.1.12,2013-02-15 14:28:00,
2013-02-15 09:33:00,37.2,29.7,29.88,WSW,256,2.0,4.0,74,0.00,,,0.00,Wunderground v.1.12,2013-02-15 14:33:00,
2013-02-15 09:36:00,36.9,29.7,29.88,South,180,1.0,7.0,75,0.00,,,0.00,Wunderground v.1.12,2013-02-15 14:36:00,
2013-02-15 09:38:00,37.6,29.7,29.88,WSW,256,1.0,3.0,73,0.00,,,0.00,Wunderground v.1.12,2013-02-15 14:38:00,
2013-02-15 09:43:00,38.2,29.6,29.88,WSW,240,1.0,5.0,71,0.00,,,0.00,Wunderground v.1.12,2013-02-15 14:43:00,
2013-02-15 09:48:00,38.6,29.7,29.88,SW,236,3.0,7.0,70,0.00,,,0.00,Wunderground v.1.12,2013-02-15 14:48:00,
2013-02-15 09:54:00,39.2,29.5,29.88,WSW,240,3.0,3.0,68,0.00,,,0.00,Wunderground v.1.12,2013-02-15 14:54:00,
2013-02-15 10:00:00,39.8,29.7,29.88,SW,230,2.0,4.0,67,0.00,,,0.00,Wunderground v.1.12,2013-02-15 15:00:00,
2013-02-15 10:06:00,40.3,29.8,29.88,South,182,1.0,1.0,66,0.00,,,0.00,Wunderground v.1.12,2013-02-15 15:06:00,
2013-02-15 10:07:00,39.6,29.9,29.88,WSW,248,2.0,9.0,68,0.00,,,0.00,Wunderground v.1.12,2013-02-15 15:07:00,
2013-02-15 10:13:00,41.1,29.5,29.88,WSW,240,2.0,4.0,63,0.00,,,0.00,Wunderground v.1.12,2013-02-15 15:13:00,
2013-02-15 10:18:00,41.6,29.5,29.88,West,267,3.0,5.0,62,0.00,,,0.00,Wunderground v.1.12,2013-02-15 15:18:00,
2013-02-15 10:23:00,42.2,29.3,29.88,SW,219,4.0,11.0,60,0.00,,,0.00,Wunderground v.1.12,2013-02-15 15:23:00,
2013-02-15 10:29:00,42.8,29.5,29.87,SW,232,2.0,2.0,59,0.00,,,0.00,Wunderground v.1.12,2013-02-15 15:29:00,
2013-02-15 10:34:00,43.1,29.3,29.87,WNW,284,2.0,10.0,58,0.00,,,0.00,Wunderground v.1.12,2013-02-15 15:34:00,
2013-02-15 10:38:00,42.8,29.5,29.87,WSW,248,2.0,11.0,59,0.00,,,0.00,Wunderground v.1.12,2013-02-15 15:38:00,
2013-02-15 10:40:00,43.3,29.5,29.87,SSW,210,3.0,3.0,58,0.00,,,0.00,Wunderground v.1.12,2013-02-15 15:40:00,
2013-02-15 10:46:00,43.9,29.6,29.86,SSE,163,2.0,4.0,57,0.00,,,0.00,Wunderground v.1.12,2013-02-15 15:46:00,
2013-02-15 10:51:00,44.5,29.8,29.86,SSE,162,2.0,4.0,56,0.00,,,0.00,Wunderground v.1.12,2013-02-15 15:51:00,
2013-02-15 10:58:00,45.2,29.5,29.86,South,171,3.0,5.0,54,0.00,,,0.00,Wunderground v.1.12,2013-02-15 15:58:00,
2013-02-15 11:03:00,45.5,29.8,29.86,WSW,240,4.0,4.0,54,0.00,,,0.00,Wunderground v.1.12,2013-02-15 16:03:00,
2013-02-15 11:06:00,45.2,29.5,29.86,South,180,3.0,14.0,54,0.00,,,0.00,Wunderground v.1.12,2013-02-15 16:06:00,
2013-02-15 11:08:00,45.7,30.0,29.86,South,169,3.0,5.0,54,0.00,,,0.00,Wunderground v.1.12,2013-02-15 16:08:00,
2013-02-15 11:13:00,45.8,29.6,29.86,WSW,258,2.0,6.0,53,0.00,,,0.00,Wunderground v.1.12,2013-02-15 16:13:00,
2013-02-15 11:19:00,45.8,29.6,29.86,SSW,198,2.0,2.0,53,0.00,,,0.00,Wunderground v.1.12,2013-02-15 16:19:00,
2013-02-15 11:24:00,46.0,29.8,29.86,South,181,2.0,3.0,53,0.00,,,0.00,Wunderground v.1.12,2013-02-15 16:24:00,
2013-02-15 11:30:00,46.1,29.9,29.85,WSW,257,2.0,2.0,53,0.00,,,0.00,Wunderground v.1.12,2013-02-15 16:30:00,
2013-02-15 11:35:00,46.5,29.8,29.85,South,187,2.0,3.0,52,0.00,,,0.00,Wunderground v.1.12,2013-02-15 16:35:00,
2013-02-15 11:37:00,46.1,29.9,29.85,South,180,2.0,11.0,53,0.00,,,0.00,Wunderground v.1.12,2013-02-15 16:37:00,
2013-02-15 11:40:00,46.8,30.1,29.85,South,179,3.0,3.0,52,0.00,,,0.00,Wunderground v.1.12,2013-02-15 16:40:00,
2013-02-15 11:45:00,47.4,30.2,29.84,WSW,244,3.0,6.0,51,0.00,,,0.00,Wunderground v.1.12,2013-02-15 16:45:00,
2013-02-15 11:50:00,47.6,30.3,29.84,SSE,164,3.0,3.0,51,0.00,,,0.00,Wunderground v.1.12,2013-02-15 16:50:00,
2013-02-15 11:55:00,47.4,30.2,29.84,West,273,3.0,3.0,51,0.00,,,0.00,Wunderground v.1.12,2013-02-15 16:55:00,
2013-02-15 12:01:00,47.4,30.6,29.84,WSW,239,4.0,4.0,52,0.00,,,0.00,Wunderground v.1.12,2013-02-15 17:01:00,
2013-02-15 12:06:00,47.7,30.4,29.84,South,180,3.0,11.0,51,0.00,,,0.00,Wunderground v.1.12,2013-02-15 17:06:00,
2013-02-15 12:07:00,47.3,30.1,29.84,South,180,3.0,16.0,51,0.00,,,0.00,Wunderground v.1.12,2013-02-15 17:07:00,
2013-02-15 12:13:00,48.2,30.9,29.84,SW,236,3.0,5.0,51,0.00,,,0.00,Wunderground v.1.12,2013-02-15 17:13:00,
2013-02-15 12:18:00,48.5,30.2,29.83,South,170,3.0,8.0,49,0.00,,,0.00,Wunderground v.1.12,2013-02-15 17:18:00,
2013-02-15 12:24:00,49.1,30.2,29.83,South,178,3.0,3.0,48,0.00,,,0.00,Wunderground v.1.12,2013-02-15 17:24:00,
2013-02-15 12:30:00,49.2,30.8,29.81,South,180,3.0,3.0,49,0.00,,,0.00,Wunderground v.1.12,2013-02-15 17:30:00,
2013-02-15 12:36:00,49.4,30.0,29.81,South,182,2.0,11.0,47,0.00,,,0.00,Wunderground v.1.12,2013-02-15 17:36:00,
2013-02-15 12:37:00,49.2,31.3,29.81,South,180,3.0,13.0,50,0.00,,,0.00,Wunderground v.1.12,2013-02-15 17:37:00,
2013-02-15 12:43:00,49.6,30.2,29.81,South,178,3.0,3.0,47,0.00,,,0.00,Wunderground v.1.12,2013-02-15 17:43:00,
2013-02-15 12:48:00,49.5,30.6,29.81,South,170,2.0,7.0,48,0.00,,,0.00,Wunderground v.1.12,2013-02-15 17:48:00,
2013-02-15 12:53:00,49.2,30.8,29.81,SSE,163,3.0,10.0,49,0.00,,,0.00,Wunderground v.1.12,2013-02-15 17:53:00,
2013-02-15 12:59:00,49.6,30.2,29.80,West,281,3.0,3.0,47,0.00,,,0.00,Wunderground v.1.12,2013-02-15 17:59:00,
2013-02-15 13:05:00,49.8,30.9,29.80,SSW,207,2.0,6.0,48,0.00,,,0.00,Wunderground v.1.12,2013-02-15 18:05:00,
2013-02-15 13:07:00,49.5,30.1,29.80,South,180,3.0,12.0,47,0.00,,,0.00,Wunderground v.1.12,2013-02-15 18:07:00,
2013-02-15 13:10:00,49.6,30.2,29.80,South,180,3.0,6.0,47,0.00,,,0.00,Wunderground v.1.12,2013-02-15 18:10:00,
2013-02-15 13:15:00,49.8,30.4,29.80,SSW,208,4.0,4.0,47,0.00,,,0.00,Wunderground v.1.12,2013-02-15 18:15:00,
2013-02-15 13:20:00,50.1,30.6,29.80,South,180,3.0,4.0,47,0.00,,,0.00,Wunderground v.1.12,2013-02-15 18:20:00,
2013-02-15 13:26:00,50.1,30.1,29.80,South,173,4.0,9.0,46,0.00,,,0.00,Wunderground v.1.12,2013-02-15 18:26:00,
2013-02-15 13:33:00,50.5,31.0,29.80,WSW,257,3.0,6.0,47,0.00,,,0.00,Wunderground v.1.12,2013-02-15 18:33:00,
2013-02-15 13:36:00,50.4,30.9,29.80,South,180,3.0,14.0,47,0.00,,,0.00,Wunderground v.1.12,2013-02-15 18:36:00,
2013-02-15 13:39:00,50.5,30.5,29.80,South,178,4.0,4.0,46,0.00,,,0.00,Wunderground v.1.12,2013-02-15 18:39:00,
2013-02-15 13:45:00,50.5,31.0,29.80,South,184,4.0,7.0,47,0.00,,,0.00,Wunderground v.1.12,2013-02-15 18:45:00,
2013-02-15 13:50:00,50.7,30.1,29.80,West,267,4.0,7.0,45,0.00,,,0.00,Wunderground v.1.12,2013-02-15 18:50:00,
2013-02-15 13:55:00,50.8,30.7,29.80,South,173,3.0,4.0,46,0.00,,,0.00,Wunderground v.1.12,2013-02-15 18:55:00,
2013-02-15 14:00:00,51.3,31.2,29.80,SSW,207,3.0,3.0,46,0.00,,,0.00,Wunderground v.1.12,2013-02-15 19:00:00,
2013-02-15 14:06:00,51.4,30.7,29.80,South,178,2.0,4.0,45,0.00,,,0.00,Wunderground v.1.12,2013-02-15 19:06:00,
2013-02-15 14:07:00,51.3,30.7,29.80,South,180,3.0,13.0,45,0.00,,,0.00,Wunderground v.1.12,2013-02-15 19:07:00,
2013-02-15 14:13:00,51.6,30.9,29.80,SSW,200,3.0,5.0,45,0.00,,,0.00,Wunderground v.1.12,2013-02-15 19:13:00,
2013-02-15 14:18:00,51.6,30.4,29.80,SSE,154,4.0,5.0,44,0.00,,,0.00,Wunderground v.1.12,2013-02-15 19:18:00,
2013-02-15 14:24:00,51.7,30.5,29.80,SSW,195,3.0,3.0,44,0.00,,,0.00,Wunderground v.1.12,2013-02-15 19:24:00,
2013-02-15 14:30:00,52.3,30.4,29.80,West,270,2.0,9.0,43,0.00,,,0.00,Wunderground v.1.12,2013-02-15 19:30:00,
2013-02-15 14:36:00,51.6,30.4,29.80,West,261,4.0,6.0,44,0.00,,,0.00,Wunderground v.1.12,2013-02-15 19:36:00,
2013-02-15 14:38:00,52.2,30.9,29.80,SSW,203,3.0,13.0,44,0.00,,,0.00,Wunderground v.1.12,2013-02-15 19:38:00,
2013-02-15 14:41:00,51.6,30.9,29.80,SSW,213,5.0,7.0,45,0.00,,,0.00,Wunderground v.1.12,2013-02-15 19:41:00,
2013-02-15 14:46:00,51.7,31.0,29.79,SSW,198,4.0,5.0,45,0.00,,,0.00,Wunderground v.1.12,2013-02-15 19:46:00,
2013-02-15 14:51:00,51.7,31.0,29.79,SSW,208,4.0,4.0,45,0.00,,,0.00,Wunderground v.1.12,2013-02-15 19:51:00,
2013-02-15 14:58:00,51.9,30.6,29.79,SSW,197,3.0,9.0,44,0.00,,,0.00,Wunderground v.1.12,2013-02-15 19:58:00,
2013-02-15 15:03:00,51.6,30.9,29.79,West,269,3.0,5.0,45,0.00,,,0.00,Wunderground v.1.12,2013-02-15 20:03:00,
2013-02-15 15:07:00,51.7,30.5,29.79,West,270,4.0,14.0,44,0.00,,,0.00,Wunderground v.1.12,2013-02-15 20:07:00,
2013-02-15 15:08:00,51.7,30.5,29.79,SW,232,3.0,9.0,44,0.00,,,0.00,Wunderground v.1.12,2013-02-15 20:08:00,
2013-02-15 15:14:00,51.6,30.9,29.79,WSW,245,3.0,3.0,45,0.00,,,0.00,Wunderground v.1.12,2013-02-15 20:14:00,
2013-02-15 15:19:00,51.6,30.9,29.79,South,188,3.0,3.0,45,0.00,,,0.00,Wunderground v.1.12,2013-02-15 20:19:00,
2013-02-15 15:25:00,51.6,30.4,29.79,SSW,198,3.0,3.0,44,0.00,,,0.00,Wunderground v.1.12,2013-02-15 20:25:00,
2013-02-15 15:30:00,51.7,31.0,29.79,SW,231,3.0,3.0,45,0.00,,,0.00,Wunderground v.1.12,2013-02-15 20:30:00,
2013-02-15 15:35:00,51.6,30.9,29.79,SSW,200,2.0,2.0,45,0.00,,,0.00,Wunderground v.1.12,2013-02-15 20:35:00,
2013-02-15 15:36:00,51.7,31.0,29.79,South,180,3.0,19.0,45,0.00,,,0.00,Wunderground v.1.12,2013-02-15 20:36:00,
2013-02-15 15:41:00,51.6,31.5,29.79,ESE,112,2.0,4.0,46,0.00,,,0.00,Wunderground v.1.12,2013-02-15 20:41:00,
2013-02-15 15:48:00,51.3,31.7,29.79,SSW,196,2.0,3.0,47,0.00,,,0.00,Wunderground v.1.12,2013-02-15 20:48:00,
2013-02-15 15:53:00,51.3,31.7,29.79,South,184,1.0,2.0,47,0.00,,,0.00,Wunderground v.1.12,2013-02-15 20:53:00,
2013-02-15 15:58:00,51.3,31.2,29.79,South,180,1.0,4.0,46,0.00,,,0.00,Wunderground v.1.12,2013-02-15 20:58:00,
2013-02-15 16:04:00,51.1,31.6,29.79,SSE,165,2.0,2.0,47,0.00,,,0.00,Wunderground v.1.12,2013-02-15 21:04:00,
2013-02-15 16:05:00,51.3,31.2,29.78,South,180,2.0,11.0,46,0.00,,,0.00,Wunderground v.1.12,2013-02-15 21:05:00,
2013-02-15 16:10:00,51.0,31.5,29.79,South,178,2.0,4.0,47,0.00,,,0.00,Wunderground v.1.12,2013-02-15 21:10:00,
2013-02-15 16:16:00,51.1,31.6,29.79,South,190,1.0,2.0,47,0.00,,,0.00,Wunderground v.1.12,2013-02-15 21:16:00,
2013-02-15 16:21:00,51.3,31.7,29.79,South,186,1.0,1.0,47,0.00,,,0.00,Wunderground v.1.12,2013-02-15 21:21:00,
2013-02-15 16:26:00,51.4,31.8,29.79,South,186,0.0,0.0,47,0.00,,,0.00,Wunderground v.1.12,2013-02-15 21:26:00,
2013-02-15 16:33:00,51.6,31.5,29.79,SSW,207,0.0,3.0,46,0.00,,,0.00,Wunderground v.1.12,2013-02-15 21:33:00,
2013-02-15 16:36:00,51.6,32.0,29.79,South,180,1.0,6.0,47,0.00,,,0.00,Wunderground v.1.12,2013-02-15 21:36:00,
2013-02-15 16:38:00,51.0,31.5,29.79,South,171,1.0,1.0,47,0.00,,,0.00,Wunderground v.1.12,2013-02-15 21:38:00,
2013-02-15 16:43:00,50.5,31.5,29.79,South,171,0.0,2.0,48,0.00,,,0.00,Wunderground v.1.12,2013-02-15 21:43:00,
2013-02-15 16:48:00,49.1,32.7,29.79,SE,130,1.0,1.0,53,0.00,,,0.00,Wunderground v.1.12,2013-02-15 21:48:00,
2013-02-15 16:54:00,47.7,33.2,29.79,East,94,1.0,4.0,57,0.00,,,0.00,Wunderground v.1.12,2013-02-15 21:54:00,
2013-02-15 17:00:00,46.7,33.1,29.80,East,91,0.0,1.0,59,0.00,,,0.00,Wunderground v.1.12,2013-02-15 22:00:00,
2013-02-15 17:06:00,45.7,33.0,29.80,SSE,150,0.0,0.0,61,0.00,,,0.00,Wunderground v.1.12,2013-02-15 22:06:00,
2013-02-15 17:08:00,46.8,32.8,29.80,South,180,1.0,7.0,58,0.00,,,0.00,Wunderground v.1.12,2013-02-15 22:08:00,
2013-02-15 17:11:00,45.1,33.2,29.80,ESE,104,0.0,1.0,63,0.00,,,0.00,Wunderground v.1.12,2013-02-15 22:11:00,
2013-02-15 17:16:00,44.5,33.1,29.80,SE,128,1.0,2.0,64,0.00,,,0.00,Wunderground v.1.12,2013-02-15 22:16:00,
2013-02-15 17:21:00,44.1,33.5,29.80,South,173,0.0,1.0,66,0.00,,,0.00,Wunderground v.1.12,2013-02-15 22:21:00,
2013-02-15 17:28:00,43.6,33.4,29.80,SE,133,0.0,1.0,67,0.00,,,0.00,Wunderground v.1.12,2013-02-15 22:28:00,
2013-02-15 17:33:00,43.3,33.4,29.80,SE,135,0.0,2.0,68,0.00,,,0.00,Wunderground v.1.12,2013-02-15 22:33:00,
2013-02-15 17:35:00,43.5,33.3,29.80,SSE,158,0.0,4.0,67,0.00,,,0.00,Wunderground v.1.12,2013-02-15 22:35:00,
2013-02-15 17:38:00,43.2,33.7,29.80,ESE,123,0.0,1.0,69,0.00,,,0.00,Wunderground v.1.12,2013-02-15 22:38:00,
2013-02-15 17:43:00,43.2,33.7,29.80,ESE,120,0.0,1.0,69,0.00,,,0.00,Wunderground v.1.12,2013-02-15 22:43:00,
2013-02-15 17:49:00,43.1,33.6,29.80,South,169,0.0,0.0,69,0.00,,,0.00,Wunderground v.1.12,2013-02-15 22:49:00,
2013-02-15 17:55:00,42.9,33.4,29.80,South,173,0.0,0.0,69,0.00,,,0.00,Wunderground v.1.12,2013-02-15 22:55:00,
2013-02-15 18:01:00,42.6,33.5,29.80,East,93,0.0,1.0,70,0.00,,,0.00,Wunderground v.1.12,2013-02-15 23:01:00,
2013-02-15 18:08:00,42.3,33.6,29.80,East,98,1.0,1.0,71,0.00,,,0.00,Wunderground v.1.12,2013-02-15 23:08:00,
2013-02-15 18:13:00,42.2,33.5,29.80,SSE,163,1.0,4.0,71,0.00,,,0.00,Wunderground v.1.12,2013-02-15 23:13:00,
2013-02-15 18:21:00,42.2,33.8,29.80,SSE,150,1.0,3.0,72,0.00,,,0.00,Wunderground v.1.12,2013-02-15 23:21:00,
2013-02-15 18:28:00,42.1,33.7,29.80,SSE,158,0.0,1.0,72,0.00,,,0.00,Wunderground v.1.12,2013-02-15 23:28:00,
2013-02-15 18:33:00,41.9,33.9,29.80,SSE,161,0.0,2.0,73,0.00,,,0.00,Wunderground v.1.12,2013-02-15 23:33:00,
2013-02-15 18:35:00,42.1,33.7,29.80,SSE,158,1.0,5.0,72,0.00,,,0.00,Wunderground v.1.12,2013-02-15 23:35:00,
2013-02-15 18:38:00,41.8,33.8,29.80,South,173,0.0,0.0,73,0.00,,,0.00,Wunderground v.1.12,2013-02-15 23:38:00,
2013-02-15 18:43:00,41.6,33.6,29.80,ESE,121,0.0,0.0,73,0.00,,,0.00,Wunderground v.1.12,2013-02-15 23:43:00,
2013-02-15 18:49:00,41.5,33.8,29.81,SE,140,0.0,1.0,74,0.00,,,0.00,Wunderground v.1.12,2013-02-15 23:49:00,
2013-02-15 18:54:00,41.3,33.6,29.81,SE,135,0.0,2.0,74,0.00,,,0.00,Wunderground v.1.12,2013-02-15 23:54:00,
2013-02-15 19:00:00,41.1,33.8,29.81,South,183,0.0,2.0,75,0.00,,,0.00,Wunderground v.1.12,2013-02-16 00:00:00,
2013-02-15 19:05:00,41.1,33.8,29.81,SSE,158,0.0,5.0,75,0.00,,,0.00,Wunderground v.1.12,2013-02-16 00:05:00,
2013-02-15 19:06:00,40.8,33.8,29.81,SSE,158,1.0,3.0,76,0.00,,,0.00,Wunderground v.1.12,2013-02-16 00:06:00,
2013-02-15 19:11:00,41.1,34.1,29.81,SSE,162,1.0,1.0,76,0.00,,,0.00,Wunderground v.1.12,2013-02-16 00:11:00,
2013-02-15 19:16:00,41.1,33.8,29.81,South,173,1.0,3.0,75,0.00,,,0.00,Wunderground v.1.12,2013-02-16 00:16:00,
2013-02-15 19:21:00,41.1,33.8,29.81,SSE,163,1.0,1.0,75,0.00,,,0.00,Wunderground v.1.12,2013-02-16 00:21:00,
2013-02-15 19:26:00,41.1,34.1,29.81,SE,144,0.0,1.0,76,0.00,,,0.00,Wunderground v.1.12,2013-02-16 00:26:00,
2013-02-15 19:33:00,41.2,33.9,29.82,SSE,163,1.0,2.0,75,0.00,,,0.00,Wunderground v.1.12,2013-02-16 00:33:00,
2013-02-15 19:36:00,41.2,33.9,29.82,SSE,158,1.0,5.0,75,0.00,,,0.00,Wunderground v.1.12,2013-02-16 00:36:00,
2013-02-15 19:38:00,41.3,34.0,29.82,SSE,163,1.0,3.0,75,0.00,,,0.00,Wunderground v.1.12,2013-02-16 00:38:00,
2013-02-15 19:43:00,41.3,34.0,29.82,SSE,163,1.0,1.0,75,0.00,,,0.00,Wunderground v.1.12,2013-02-16 00:43:00,
2013-02-15 19:48:00,41.2,33.9,29.82,WNW,294,0.0,6.0,75,0.00,,,0.00,Wunderground v.1.12,2013-02-16 00:48:00,
2013-02-15 19:53:00,40.6,33.3,29.82,WNW,289,2.0,10.0,75,0.00,,,0.00,Wunderground v.1.12,2013-02-16 00:53:00,
2013-02-15 19:58:00,41.1,33.4,29.82,WNW,289,4.0,4.0,74,0.00,,,0.00,Wunderground v.1.12,2013-02-16 00:58:00,
2013-02-15 20:04:00,41.2,33.2,29.83,WNW,289,2.0,2.0,73,0.00,,,0.00,Wunderground v.1.12,2013-02-16 01:04:00,
2013-02-15 20:06:00,41.1,33.4,29.83,WNW,293,1.0,11.0,74,0.00,,,0.00,Wunderground v.1.12,2013-02-16 01:06:00,
2013-02-15 20:09:00,41.2,33.2,29.83,WNW,289,1.0,1.0,73,0.00,,,0.00,Wunderground v.1.12,2013-02-16 01:09:00,
2013-02-15 20:14:00,41.3,33.0,29.83,WNW,289,0.0,0.0,72,0.00,,,0.00,Wunderground v.1.12,2013-02-16 01:14:00,
2013-02-15 20:20:00,41.3,32.6,29.83,WNW,289,0.0,0.0,71,0.00,,,0.00,Wunderground v.1.12,2013-02-16 01:20:00,
2013-02-15 20:25:00,41.1,32.4,29.83,WNW,289,0.0,0.0,71,0.00,,,0.00,Wunderground v.1.12,2013-02-16 01:25:00,
2013-02-15 20:30:00,40.9,31.1,29.83,WNW,289,0.0,0.0,68,0.00,,,0.00,Wunderground v.1.12,2013-02-16 01:30:00,
2013-02-15 20:35:00,40.6,31.6,29.83,WNW,289,0.0,0.0,70,0.00,,,0.00,Wunderground v.1.12,2013-02-16 01:35:00,
2013-02-15 20:36:00,40.9,31.1,29.83,WNW,293,0.0,4.0,68,0.00,,,0.00,Wunderground v.1.12,2013-02-16 01:36:00,
2013-02-15 20:41:00,39.8,31.2,29.83,WNW,289,0.0,0.0,71,0.00,,,0.00,Wunderground v.1.12,2013-02-16 01:41:00,
2013-02-15 20:46:00,39.2,30.9,29.83,WNW,289,0.0,0.0,72,0.00,,,0.00,Wunderground v.1.12,2013-02-16 01:46:00,
2013-02-15 20:53:00,38.5,30.3,29.83,WNW,289,0.0,0.0,72,0.00,,,0.00,Wunderground v.1.12,2013-02-16 01:53:00,
2013-02-15 20:58:00,38.0,30.1,29.83,WNW,289,0.0,0.0,73,0.00,,,0.00,Wunderground v.1.12,2013-02-16 01:58:00,
2013-02-15 21:03:00,37.6,30.1,29.84,WNW,289,0.0,0.0,74,0.00,,,0.00,Wunderground v.1.12,2013-02-16 02:03:00,
2013-02-15 21:07:00,37.9,30.0,29.84,N/A,-737280,0.0,0.0,73,0.00,,,0.00,Wunderground v.1.12,2013-02-16 02:07:00,
2013-02-15 21:09:00,37.0,30.1,29.84,WNW,289,0.0,0.0,76,0.00,,,0.00,Wunderground v.1.12,2013-02-16 02:09:00,
2013-02-15 21:15:00,36.5,30.0,29.84,WNW,289,0.0,0.0,77,0.00,,,0.00,Wunderground v.1.12,2013-02-16 02:15:00,
2013-02-15 21:21:00,36.2,29.7,29.84,WNW,289,0.0,0.0,77,0.00,,,0.00,Wunderground v.1.12,2013-02-16 02:21:00,
2013-02-15 21:26:00,35.9,29.7,29.84,WNW,289,0.0,0.0,78,0.00,,,0.00,Wunderground v.1.12,2013-02-16 02:26:00,
2013-02-15 21:34:00,35.5,29.6,29.84,WNW,289,0.0,0.0,79,0.00,,,0.00,Wunderground v.1.12,2013-02-16 02:34:00,
2013-02-15 21:36:00,35.8,29.6,29.84,N/A,-737280,0.0,0.0,78,0.00,,,0.00,Wunderground v.1.12,2013-02-16 02:36:00,
2013-02-15 21:39:00,35.5,29.9,29.84,WNW,289,0.0,0.0,80,0.00,,,0.00,Wunderground v.1.12,2013-02-16 02:39:00,
2013-02-15 21:45:00,35.3,29.7,29.85,WNW,289,0.0,0.0,80,0.00,,,0.00,Wunderground v.1.12,2013-02-16 02:45:00,
2013-02-15 21:51:00,35.2,29.6,29.85,WNW,289,0.0,0.0,80,0.00,,,0.00,Wunderground v.1.12,2013-02-16 02:51:00,
2013-02-15 21:56:00,35.0,29.5,29.85,WNW,289,0.0,0.0,80,0.00,,,0.00,Wunderground v.1.12,2013-02-16 02:56:00,
2013-02-15 22:03:00,34.7,29.5,29.84,WNW,289,0.0,0.0,81,0.00,,,0.00,Wunderground v.1.12,2013-02-16 03:03:00,
2013-02-15 22:06:00,34.9,29.4,29.84,WNW,293,0.0,1.0,80,0.00,,,0.00,Wunderground v.1.12,2013-02-16 03:06:00,
2013-02-15 22:08:00,34.3,29.1,29.84,WNW,289,0.0,0.0,81,0.00,,,0.00,Wunderground v.1.12,2013-02-16 03:08:00,
2013-02-15 22:13:00,34.0,29.1,29.84,WNW,289,0.0,0.0,82,0.00,,,0.00,Wunderground v.1.12,2013-02-16 03:13:00,
2013-02-15 22:18:00,33.5,28.6,29.84,WNW,289,0.0,0.0,82,0.00,,,0.00,Wunderground v.1.12,2013-02-16 03:18:00,
2013-02-15 22:24:00,32.8,28.2,29.84,WNW,289,0.0,0.0,83,0.00,,,0.00,Wunderground v.1.12,2013-02-16 03:24:00,
2013-02-15 22:29:00,32.5,28.2,29.84,WNW,289,0.0,0.0,84,0.00,,,0.00,Wunderground v.1.12,2013-02-16 03:29:00,
2013-02-15 22:35:00,32.4,28.4,29.84,WNW,289,0.0,0.0,85,0.00,,,0.00,Wunderground v.1.12,2013-02-16 03:35:00,
2013-02-15 22:37:00,32.5,28.2,29.84,WNW,293,0.0,1.0,84,0.00,,,0.00,Wunderground v.1.12,2013-02-16 03:37:00,
2013-02-15 22:40:00,32.2,28.2,29.84,WNW,289,0.0,0.0,85,0.00,,,0.00,Wunderground v.1.12,2013-02-16 03:40:00,
2013-02-15 22:46:00,31.9,27.9,29.83,WNW,289,0.0,0.0,85,0.00,,,0.00,Wunderground v.1.12,2013-02-16 03:46:00,
2013-02-15 22:51:00,31.8,28.1,29.83,WNW,289,0.0,0.0,86,0.00,,,0.00,Wunderground v.1.12,2013-02-16 03:51:00,
2013-02-15 22:56:00,31.6,27.9,29.83,WNW,289,0.0,0.0,86,0.00,,,0.00,Wunderground v.1.12,2013-02-16 03:56:00,
2013-02-15 23:03:00,30.9,27.2,29.84,WNW,289,0.0,0.0,86,0.00,,,0.00,Wunderground v.1.12,2013-02-16 04:03:00,
2013-02-15 23:06:00,31.3,27.6,29.84,WNW,293,0.0,2.0,86,0.00,,,0.00,Wunderground v.1.12,2013-02-16 04:06:00,
2013-02-15 23:09:00,30.7,27.3,29.84,WNW,289,0.0,0.0,87,0.00,,,0.00,Wunderground v.1.12,2013-02-16 04:09:00,
2013-02-15 23:14:00,30.6,27.5,29.84,WNW,289,0.0,0.0,88,0.00,,,0.00,Wunderground v.1.12,2013-02-16 04:14:00,
2013-02-15 23:19:00,30.4,27.3,29.84,WNW,289,0.0,0.0,88,0.00,,,0.00,Wunderground v.1.12,2013-02-16 04:19:00,
2013-02-15 23:25:00,30.3,27.2,29.84,WNW,289,0.0,0.0,88,0.00,,,0.00,Wunderground v.1.12,2013-02-16 04:25:00,
2013-02-15 23:30:00,30.3,27.2,29.84,WNW,289,0.0,0.0,88,0.00,,,0.00,Wunderground v.1.12,2013-02-16 04:30:00,
2013-02-15 23:35:00,30.3,27.2,29.84,WNW,289,0.0,0.0,88,0.00,,,0.00,Wunderground v.1.12,2013-02-16 04:35:00,
2013-02-15 23:36:00,30.3,27.2,29.84,WNW,293,0.0,1.0,88,0.00,,,0.00,Wunderground v.1.12,2013-02-16 04:36:00,
2013-02-15 23:41:00,30.3,27.4,29.84,WNW,289,0.0,1.0,89,0.00,,,0.00,Wunderground v.1.12,2013-02-16 04:41:00,
2013-02-15 23:46:00,30.1,27.3,29.83,WNW,289,0.0,0.0,89,0.00,,,0.00,Wunderground v.1.12,2013-02-16 04:46:00,
2013-02-15 23:53:00,30.0,27.2,29.83,WNW,289,0.0,0.0,89,0.00,,,0.00,Wunderground v.1.12,2013-02-16 04:53:00,
2013-02-15 23:58:00,29.7,26.9,29.83,WNW,289,0.0,0.0,89,0.00,,,0.00,Wunderground v.1.12,2013-02-16 04:58:00,